Location: Blanot
(47.1713°N, 4.2340°E)
Time: 10:55:44
(UTC+00:00)

USA 238 - Pass Details

Date: 14 July 2020
Orbit: 1009 x 1203 km, 63.4° (Epoch: 05 August)

Event Time Altitude Azimuth Distance (km) Brightness Sun altitude
Exits shadow 02:58:30 - 193° (SSW) 3,163 5.7 -9.1°
Reaches altitude 10° 02:59:33 10° 191° (S) 2,799 5.4 -9.0°
Maximum altitude 03:05:47 48° 119° (ESE) 1,344 4.4 -8.2°
Drops below altitude 10° 03:12:18 10° 48° (NE) 2,916 7.8 -7.4°
Sets 03:15:06 0° 43° (NE) 3,905 9.2 -7.1°
